Voltar ao catálogo

ATLAS 5 CENTAUR DEB

AtivoHEO
NORAD 44674·DEBRIS·🇺🇸 United States

Lançado Oct 17, 2018 de Cape Canaveral Space Force Station

Loading…

Próximas Passagens (próximas 24 horas)

TLE

EnvelhecendoSource: Space-Track

Época: Aug 29, 2026, 14:35 UTC

1 44674U 18079AL  26241.60814329 -.00000112  00000-0  00000-0 0  9993
2 44674  13.1559  28.6768 4356901 350.7195   3.1785  1.93746291 50962

Acompanhe ATLAS 5 CENTAUR DEB em tempo real com AllMySat

Download on the App Store